AirNav   Air Wisconsin pilot careers
 
 1510 users online  

KCEA Cessna Aircraft Field Airport
Wichita, Kansas, USA

GOING TO WICHITA?


FAA INFORMATION EFFECTIVE 13 SEPTEMBER 2018

Location

FAA Identifier: CEA
Lat/Long: 37-38-54.9540N / 097-15-02.1580W
37-38.915900N / 097-15.035967W
37.6485983 / -97.2505994
(estimated)
Elevation: 1378 ft. / 420.0 m (surveyed)
Variation: 08E (1980)
From city: 4 miles SE of WICHITA, KS
Time zone: UTC -5 (UTC -6 during Standard Time)
Zip code: 67210

Airport Operations

Airport use: Open to the public
Activation date: 04/1940
Control tower: no
ARTCC: KANSAS CITY CENTER
FSS: WICHITA FLIGHT SERVICE STATION
NOTAMs facility: ICT (NOTAM-D service available)
Attendance: UNATNDD
Wind indicator: yes
Segmented circle: yes

Airport Communications

CTAF: 122.9
WICHITA APPROACH: 134.8
WICHITA DEPARTURE: 134.8
CLEARANCE DELIVERY: 125.0
WX AWOS-3PT at BEC (3 nm NE): 119.45 (316-515-7116)
WX ASOS at AAO (6 nm N): 134.025 (316-636-2541)
WX AWOS-3PT at 3AU (8 nm E): 124.175 (316-733-6696)
WX ASOS at ICT (9 nm W): PHONE 316-945-8022
WX AWOS-3 at 1K1 (10 nm NE): 118.3 (316-530-6004)

Nearby radio navigation aids

VOR radial/distance  VOR name  Freq  Var
ICTr103/16.8WICHITA VORTAC113.8007E
HUTr119/38.6HUTCHINSON VOR/DME116.8004E

 
NDB name  Hdg/Dist  Freq  Var  ID
PICHE063/10.633204EIC .. -.-.
NEWTON172/25.028106EEWK . .-- -.-

Airport Services

Airframe service: NONE
Powerplant service: NONE
Bottled oxygen: NONE
Bulk oxygen: NONE

Runway Information

Runway 17/35

Dimensions: 3873 x 40 ft. / 1180 x 12 m
Surface: asphalt, in good condition
RUNWAY 17  RUNWAY 35
Latitude: 37-39.234483N37-38.596317N
Longitude: 097-15.035200W097-15.035750W
Elevation: 1373.0 ft.1373.0 ft.
Traffic pattern: leftright
Runway heading: 172 magnetic, 180 true352 magnetic, 000 true
Displaced threshold: 150 ft.150 ft.
Markings: basic, in good conditionbasic, in good condition
Obstructions: 10 ft. road, 252 ft. from runway, 5:1 slope to clear
APCH RATIO 40:1 TO DSPLCD THLD.
13 ft. road, 210 ft. from runway
8 FT FENCE 170 FT FM RY END.

Airport Ownership and Management from official FAA records

Ownership: Privately-owned
Owner: CESSNA AIRCRAFT COMPANY
10511 EAST CENTRAL
WICHITA, KS 67277
Phone (316) 515-6000
Manager: TODD BAYLESS
10511 EAST CENTRAL
WICHITA, KS 67201
Phone (316) 515-8365

Airport Operational Statistics

Aircraft based on the field: 16
Single engine airplanes: 15
Multi engine airplanes: 1
    
Aircraft operations: 100/year *
100% transient general aviation
* for 12-month period ending 15 August 2016

Additional Remarks

ACFT OPNS SHOULD COORDINATE WITH MC CONNELL AFB PRIOR TO ARRIVAL AND DEP - CONTROL TOWER 127.25.
RWY 17R/35L USED ONLY BY CESSNA PERSONNEL; CLOSED TO PUBLIC.

Instrument Procedures

NOTE: All procedures below are presented as PDF files. If you need a reader for these files, you should download the free Adobe Reader.

NOT FOR NAVIGATION. Please procure official charts for flight.
FAA instrument procedures published for use from 13 September 2018 at 0901Z to 11 October 2018 at 0900Z.

 
IAPs - Instrument Approach Procedures
RNAV (GPS)-D   download (166KB)
VOR-C   download (171KB)

Other nearby airports with instrument procedures:

KIAB - Mc Connell Air Force Base (2 nm SW)
KBEC - Beech Factory Airport (3 nm NE)
KAAO - Colonel James Jabara Airport (6 nm N)
3AU - Augusta Municipal Airport (8 nm E)
KICT - Wichita Dwight D Eisenhower National Airport (9 nm W)
1K1 - Lloyd Stearman Field Airport (10 nm NE)
 
Loc | Ops | Rwys | IFR | FBO | Links
Com | Nav | Svcs | Stats | Notes

Kansas City Aviation Department
 
Area around KCEA (Cessna Aircraft Field Airport)
 
Road maps at: MapQuest Bing Google
 
Aerial photo
WARNING: Photo may not be current or correct
Aerial photo of KCEA (Cessna Aircraft Field Airport)
Do you have a better or more recent aerial photo of Cessna Aircraft Field Airport that you would like to share? If so, please send us your photo.

 
Sectional chart

 
Airport distance calculator
Flying to Cessna Aircraft Field Airport? Find the distance to fly.

From to KCEA

Sunrise and sunset
Times for 26-Sep-2018
 Local
(UTC-5)
 Zulu
(UTC)
Morning civil twilight06:5511:55
Sunrise07:2112:21
Sunset19:1900:19
Evening civil twilight19:4600:46

Current date and time
Zulu (UTC)  26-Sep-2018 14:25:36
Local (UTC-5)  26-Sep-2018 09:25:36
 
METAR
KIAB 
2nm S 
261356Z AUTO 34005KT 10SM FEW210 12/08 A3032 RMK AO2 SLP268 T01190084 $
KBEC 
3nm NE 
261355Z AUTO 32003KT 10SM CLR 12/08 A3032 RMK AO2 T01150084
KAAO 
6nm N 
261354Z AUTO 31004KT 10SM CLR 11/09 A3032 RMK AO2 SLP268 T01110094
K3AU 
8nm E 
261355Z AUTO 32004KT 10SM CLR 10/09 A3032 RMK AO2
KICT 
9nm W 
261353Z 32005KT 10SM SCT150 BKN180 OVC220 12/10 A3032 RMK AO2 SLP264 T01170100
K1K1 
10nm NE 
261355Z AUTO 00000KT 10SM CLR 10/09 A3033 RMK AO2 T01010086
TAF
KIAB 
2nm S 
261000Z 2610/2716 04009KT 9999 SCT200 QNH3014INS BECMG 2622/2623 VRB06KT 9999 FEW160 QNH3008INS BECMG 2713/2714 19010G15KT 9999 SKC QNH3004INS TX20/2620Z TN09/2710Z
KICT 
9nm W 
261120Z 2612/2712 01008KT P6SM BKN200 FM270900 VRB04KT P6SM SKC
NOTAMs
Click for the latest NOTAMs
NOTAMs are issued by the DoD/FAA and will open in a separate window not controlled by AirNav.

 

 
 

Would you like to see your business listed on this page?

 If your business provides an interesting product or service to pilots, flight crews, aircraft, or users of the Cessna Aircraft Field Airport, you should consider listing it here.  To start the listing process, click on the button below
 
Add a business
 

Other Pages about Cessna Aircraft Field Airport

Update a link
 
Copyright © AirNav, LLC. All rights reserved. Privacy Policy  Contact